Location: Las Vegas
(36.1750°N, 115.1360°W)
Time: 23:07:56
(UTC-07:00)

Amateur Radio Satellites - All Passes

Search period start: 30 April 2016 22:37
Search period end: 01 May 2016 22:37
Location: Las Vegas, 36.1750°N, 115.1360°W

Satellite Date Start Highest point End Downlink Frequencies (MHz)
Time Altitude Azimuth
ZACube-1 30 Apr 22:45:38 22:47:11 12° 268° (W) 22:48:44 437.345
TIGRISAT 30 Apr 22:48:37 22:52:48 49° 99° (E) 22:56:55 435.000
VELOX 1 30 Apr 22:54:40 22:58:31 30° 71° (ENE) 23:02:25 145.980
DX 1 30 Apr 22:59:23 23:03:12 31° 71° (ENE) 23:07:03 434.975-435.025
JUGNU 30 Apr 23:01:23 23:02:35 11° 193° (SSW) 23:03:46 437.505
UKube-1 30 Apr 23:09:57 23:13:48 33° 71° (ENE) 23:17:41 .
ANTELSAT 30 Apr 23:12:29 23:16:51 80° 282° (WNW) 23:21:05 437.575/2403.000
AISAT 30 Apr 23:25:47 23:30:12 75° 76° (ENE) 23:34:40 437.250
QB50P2 30 Apr 23:34:29 23:38:19 32° 98° (E) 23:42:06 145.880/145.840
ESTCUBE 1 30 Apr 23:35:27 23:39:52 64° 259° (W) 23:44:20 437.505/2401.250
POLYITAN 1 30 Apr 23:36:37 23:40:27 33° 98° (E) 23:44:14 437.675
DUCHIFAT 1 30 Apr 23:37:20 23:41:04 29° 97° (E) 23:44:43 145.980
POPSAT HIP 1 30 Apr 23:39:47 23:43:41 35° 98° (E) 23:47:31 437.405
QB50P1 30 Apr 23:43:10 23:47:09 39° 98° (E) 23:51:05 145.935-145.965
SPROUT 30 Apr 23:43:49 23:47:47 38° 72° (ENE) 23:51:48 437.525
50 SAT 30 Apr 23:44:06 23:47:40 51° 260° (W) 23:51:14 437.505
GONETS M04 30 Apr 23:44:24 23:51:44 31° 84° (E) 23:59:04
SRMSAT 30 Apr 23:54:44 23:57:55 15° 187° (S) 00:01:05 437.500
O/OREOS (USA 219) 30 Apr 23:59:26 00:01:16 12° 56° (NE) 00:03:07 437.305
UNISAT 6 01 May 00:07:49 00:10:52 19° 292° (WNW) 00:13:53 437.425
CUBEBUG 1 01 May 00:09:18 00:13:20 36° 262° (W) 00:17:25 437.445
RS-15 01 May 00:13:59 00:23:49 32° 321° (NW) 00:34:10 29.354- 29.394
PCSat 01 May 00:17:18 00:21:06 19° 50° (NE) 00:24:53 145.827
AIST 1 01 May 00:17:59 00:22:02 43° 92° (E) 00:26:08
NANOSAT C BR1 01 May 00:19:04 00:23:18 78° 284° (WNW) 00:27:29 145.865
TISAT 1 01 May 00:26:08 00:29:57 33° 72° (ENE) 00:33:47 437.305
TIGRISAT 01 May 00:27:07 00:29:01 13° 295° (WNW) 00:30:55 435.000
BUGSAT 1 01 May 00:28:09 00:32:18 57° 101° (E) 00:36:22 437.445
VELOX 1 01 May 00:31:40 00:34:59 21° 265° (W) 00:38:20 145.980
JAS-2 01 May 00:33:39 00:39:48 25° 92° (E) 00:45:53 435.910
DX 1 01 May 00:36:13 00:39:24 20° 265° (W) 00:42:37 434.975-435.025
UKube-1 01 May 00:46:55 00:49:54 18° 265° (W) 00:52:54 .
ITUPSAT 1 01 May 00:54:56 00:57:08 13° 64° (ENE) 00:59:22 437.325
SWISSCUBE 01 May 01:04:17 01:07:36 19° 66° (ENE) 01:10:54 437.505
QB50P2 01 May 01:10:58 01:13:51 18° 292° (WNW) 01:16:45 145.880/145.840
POLYITAN 1 01 May 01:13:07 01:15:58 18° 292° (WNW) 01:18:49 437.675
DUCHIFAT 1 01 May 01:13:30 01:16:32 19° 292° (WNW) 01:19:33 145.980
Cosmos 2499 01 May 01:16:02 01:23:04 63° 93° (E) 01:30:01 435.465 / 435.565
POPSAT HIP 1 01 May 01:16:24 01:19:09 17° 293° (WNW) 01:21:53 437.405
QB50P1 01 May 01:20:05 01:22:34 15° 293° (WNW) 01:25:03 145.935-145.965
SPROUT 01 May 01:21:15 01:23:52 16° 267° (W) 01:26:29 437.525
Gurwin Techsat 1B 01 May 01:35:03 01:37:44 14° 92° (E) 01:40:23 435.225
BEESAT 01 May 01:36:31 01:40:52 37° 71° (ENE) 01:45:14 436.000
O/OREOS (USA 219) 01 May 01:36:38 01:41:05 61° 253° (WSW) 01:45:29 437.305
GONETS M04 01 May 01:39:29 01:48:03 53° 282° (WNW) 01:56:39
CUSAT 1 01 May 01:43:01 01:49:45 40° 76° (ENE) 01:57:11 437.405
Oscar 19 01 May 01:55:30 02:00:40 60° 101° (E) 02:05:46 437.125/150
AIST 1 01 May 01:57:50 01:59:52 13° 288° (WNW) 02:01:55
PCSat 01 May 01:59:33 02:04:54 60° 247° (WSW) 02:10:12 145.827
TISAT 1 01 May 02:02:48 02:05:39 17° 266° (W) 02:08:31 437.305
BUGSAT 1 01 May 02:06:07 02:07:07 11° 296° (WNW) 02:08:09 437.445
DANDE 01 May 02:06:35 02:12:19 30° 76° (ENE) 02:19:02 436.750
JAS-2 01 May 02:17:26 02:25:07 64° 287° (WNW) 02:32:47 435.910
ITUPSAT 1 01 May 02:29:45 02:34:26 59° 259° (WSW) 02:39:09 437.325
RS-15 01 May 02:35:50 02:42:02 15° 355° (N) 02:48:20 29.354- 29.394
KKS-1 01 May 02:38:45 02:42:00 20° 68° (ENE) 02:45:15 437.445
SWISSCUBE 01 May 02:40:38 02:45:04 39° 261° (W) 02:49:33 437.505
STARS 01 May 03:01:15 03:04:14 18° 67° (ENE) 03:07:14 437.465
ITAMSAT 1 01 May 03:09:33 03:14:34 49° 100° (E) 03:19:34 435.822/435.867
Cosmos 2499 01 May 03:11:52 03:16:41 19° 290° (WNW) 03:21:30 435.465 / 435.565
Gurwin Techsat 1B 01 May 03:12:48 03:18:02 62° 286° (WNW) 03:23:16 435.225
BEESAT 01 May 03:15:19 03:18:44 20° 265° (W) 03:22:10 436.000
BEESAT 3 01 May 03:15:51 03:18:58 22° 52° (NE) 03:22:04 437.485
BEESAT 2 01 May 03:19:48 03:22:09 15° 48° (NE) 03:24:29 435.950
CUSAT 1 01 May 03:25:07 03:31:48 40° 269° (W) 03:39:07 437.405
Oscar 19 01 May 03:36:30 03:39:26 15° 296° (WNW) 03:42:21 437.125/150
DANDE 01 May 03:48:49 03:55:09 48° 266° (W) 04:02:48 436.750
MOZHAYETS 4 01 May 04:02:22 04:06:56 80° 257° (WSW) 04:11:31
JAS-2 01 May 04:06:04 04:08:41 12° 304° (NW) 04:11:19 435.910
CUBESAT XI-V 01 May 04:08:26 04:09:56 11° 64° (ENE) 04:11:27 437.345
AO-7 01 May 04:11:13 04:19:24 57° 103° (ESE) 04:27:33 29.400- 29.500
KKS-1 01 May 04:14:16 04:18:18 33° 262° (W) 04:22:23 437.445
YUBILEINY 01 May 04:18:05 04:18:50 10° 60° (ENE) 04:19:34 435.215
STARS 01 May 04:36:11 04:40:17 37° 261° (W) 04:44:25 437.465
ITAMSAT 1 01 May 04:50:09 04:53:38 18° 295° (WNW) 04:57:06 435.822/435.867
RS-15 01 May 04:51:42 05:01:10 25° 32° (NNE) 05:10:40 29.354- 29.394
BEESAT 3 01 May 04:53:17 04:56:39 27° 247° (WSW) 04:59:59 437.485
BEESAT 2 01 May 04:56:25 05:00:14 45° 245° (WSW) 05:04:01 435.950
HORYU 2 01 May 05:34:49 05:39:14 74° 284° (WNW) 05:43:37 437.375
CUBESAT XI-V 01 May 05:42:11 05:46:44 64° 259° (W) 05:51:19 437.345
NOAA 18 01 May 06:00:31 06:05:05 27° 96° (E) 06:09:37 137.9125
CUTE-I 01 May 06:04:08 06:08:10 22° 95° (E) 06:12:11 437.470
AO-7 01 May 06:04:45 06:11:40 31° 300° (WNW) 06:18:37 29.400- 29.500
YUBILEINY 01 May 06:08:46 06:17:26 66° 81° (E) 06:26:04 435.215
AIST 2 01 May 06:12:12 06:16:20 72° 59° (ENE) 06:20:26 435.215
STRAND 1 01 May 06:14:45 06:18:50 25° 68° (ENE) 06:22:55 437.568
GOMX 1 01 May 06:25:34 06:29:10 18° 91° (E) 06:32:40 467.674
LilacSat-2 01 May 06:33:48 06:37:21 36° 98° (E) 06:40:51 437.200
BRITE-PL 01 May 06:40:41 06:46:17 54° 99° (E) 06:51:45 437.365/2234.400
Cubesat XI-IV 01 May 06:47:00 06:52:14 57° 101° (E) 06:57:28 437.490
Cosmos 2491 01 May 06:47:26 06:56:07 67° 92° (E) 07:04:52 435.465 / 435.565
NOAA 15 01 May 06:51:49 06:57:10 83° 284° (WNW) 07:02:28 137.62
Cosmos 2504 01 May 06:58:04 07:04:49 34° 75° (ENE) 07:11:58 435.465 / 435.565
RS-15 01 May 07:03:51 07:16:13 74° 58° (ENE) 07:28:29 29.354- 29.394
SO-50 01 May 07:17:22 07:22:13 69° 117° (ESE) 07:27:08 436.795
ISS 01 May 07:32:34 07:35:48 75° 138° (SE) 07:39:04 145.825
NOAA 18 01 May 07:40:50 07:45:44 35° 291° (WNW) 07:50:36 137.9125
CUTE-I 01 May 07:43:22 07:48:19 41° 289° (WNW) 07:53:16 437.470
M-CUBED/EXP-1 PRIME 01 May 07:49:25 07:53:22 87° 106° (ESE) 07:56:59 437.505
STRAND 1 01 May 07:53:13 07:57:48 34° 262° (W) 08:02:25 437.568
PRISM 01 May 07:55:14 07:59:10 50° 74° (ENE) 08:03:08 437.425
CANX-2 01 May 07:56:10 07:59:19 20° 95° (E) 08:02:28 2200.000
GOMX 1 01 May 08:02:15 08:07:31 51° 287° (WNW) 08:12:33 467.674
YUBILEINY 01 May 08:07:04 08:13:23 23° 278° (W) 08:19:44 435.215
DOVE 4 01 May 08:07:21 08:12:33 88° 279° (W) 08:17:24 437.250
LilacSat-2 01 May 08:09:34 08:11:17 13° 293° (WNW) 08:13:00 437.200
AUBIESAT-1 01 May 08:09:45 08:13:36 63° 290° (WNW) 08:17:09 437.475
BRITE-PL 01 May 08:20:15 08:24:14 20° 294° (WNW) 08:28:12 437.365/2234.400
CUBEBUG 2 01 May 08:28:27 08:30:09 12° 91° (E) 08:31:49 437.445
HO-68 01 May 08:28:31 08:35:26 50° 101° (E) 08:42:18 435.675
Cubesat XI-IV 01 May 08:28:33 08:31:47 17° 296° (WNW) 08:35:03 437.490
CUTE 1.7 + AOD 2 01 May 08:28:36 08:32:37 43° 99° (E) 08:36:39 437.475
Cosmos 2491 01 May 08:46:51 08:53:36 24° 291° (WNW) 09:00:25 435.465 / 435.565
Cosmos 2504 01 May 08:51:08 08:58:11 42° 271° (W) 09:05:42 435.465 / 435.565
SEEDS 01 May 08:58:58 09:03:09 74° 101° (E) 09:07:21 437.485
ZACube-1 01 May 08:59:26 09:01:07 12° 92° (E) 09:02:47 437.345
SO-50 01 May 09:00:11 09:03:12 16° 315° (NW) 09:06:12 436.795
CINEMA 3 01 May 09:03:56 09:08:35 70° 284° (WNW) 09:12:58 145.822/145.860
COMPASS 1 01 May 09:05:38 09:09:45 62° 101° (E) 09:13:52 437.405
ISS 01 May 09:10:41 09:12:37 15° 334° (NNW) 09:14:33 145.825
RS-15 01 May 09:17:45 09:27:35 30° 257° (WSW) 09:37:22 29.354- 29.394
UNISAT 6 01 May 09:26:51 09:30:28 23° 69° (ENE) 09:34:05 437.425
PHONESAT 2.4 01 May 09:31:21 09:33:41 19° 147° (SSE) 09:36:02 2401.200-2431.200
CANX-2 01 May 09:31:33 09:35:09 28° 289° (WNW) 09:38:44 2200.000
DELFI C3 01 May 09:32:01 09:34:33 16° 94° (E) 09:37:03 145.870
PRISM 01 May 09:34:15 09:34:46 10° 268° (W) 09:35:17 437.425
AAUSAT CUBESAT 2 01 May 09:38:14 09:42:20 65° 284° (WNW) 09:46:26 437.432
Oscar 11 01 May 09:42:59 09:47:11 50° 100° (E) 09:51:22 145.826/435.025
TIGRISAT 01 May 09:44:22 09:48:32 33° 71° (ENE) 09:52:39 435.000
FUNcube-1 01 May 09:52:12 09:56:18 51° 99° (E) 10:00:18 145.935
UWE-3 01 May 09:58:53 10:03:09 77° 285° (WNW) 10:07:18 435.000/436.395/437.385
GONETS M04 01 May 10:00:29 10:03:04 11° 61° (ENE) 10:05:38
CUBEBUG 2 01 May 10:02:54 10:07:03 46° 286° (WNW) 10:11:04 437.445
CUTE 1.7 + AOD 2 01 May 10:05:56 10:08:04 14° 293° (WNW) 10:10:13 437.475
ANTELSAT 01 May 10:07:59 10:12:37 64° 75° (ENE) 10:17:11 437.575/2403.000
HUMSAT D 01 May 10:16:13 10:19:30 23° 96° (E) 10:22:46 437.325/437.525
HO-68 01 May 10:16:52 10:22:47 29° 297° (WNW) 10:28:41 435.675
QB50P2 01 May 10:25:13 10:28:11 19° 68° (ENE) 10:31:10 145.880/145.840
POLYITAN 1 01 May 10:27:18 10:30:19 19° 68° (ENE) 10:33:21 437.675
DUCHIFAT 1 01 May 10:27:32 10:30:14 17° 67° (ENE) 10:32:58 145.980
POPSAT HIP 1 01 May 10:30:16 10:33:22 20° 68° (ENE) 10:36:29 437.405
QB50P1 01 May 10:33:28 10:36:45 22° 69° (ENE) 10:40:02 145.935-145.965
ZACube-1 01 May 10:33:38 10:37:38 44° 287° (WNW) 10:41:35 437.345
UNISAT 6 01 May 11:02:51 11:06:59 31° 263° (W) 11:11:06 437.425
DELFI C3 01 May 11:05:56 11:09:27 31° 288° (WNW) 11:12:59 145.870
PHONESAT 2.4 01 May 11:07:10 11:10:19 77° 341° (NNW) 11:13:29 2401.200-2431.200
NANOSAT C BR1 01 May 11:08:14 11:12:22 52° 74° (ENE) 11:16:32 145.865
Cosmos 2499 01 May 11:10:15 11:15:25 19° 70° (ENE) 11:20:45 435.465 / 435.565
BUGSAT 1 01 May 11:15:23 11:18:59 28° 70° (ENE) 11:22:36 437.445
50 SAT 01 May 11:17:36 11:19:48 15° 94° (E) 11:22:00 437.505
AISAT 01 May 11:19:48 11:22:47 17° 94° (E) 11:25:45 437.250
Oscar 11 01 May 11:21:01 11:22:51 13° 294° (WNW) 11:24:40 145.826/435.025
TIGRISAT 01 May 11:21:41 11:25:13 21° 265° (W) 11:28:44 435.000
FUNcube-1 01 May 11:30:41 11:32:02 11° 295° (WNW) 11:33:23 145.935
ESTCUBE 1 01 May 11:30:47 11:34:50 32° 97° (E) 11:38:52 437.505/2401.250
ANTELSAT 01 May 11:48:40 11:49:39 11° 269° (W) 11:50:37 437.575/2403.000
HUMSAT D 01 May 11:51:48 11:55:01 23° 290° (WNW) 11:58:12 437.325/437.525
GONETS M04 01 May 11:52:50 12:01:35 71° 82° (E) 12:10:14
QB50P2 01 May 11:59:52 12:03:44 33° 262° (W) 12:07:37 145.880/145.840
CUBEBUG 1 01 May 12:00:10 12:04:28 48° 100° (E) 12:08:44 437.445
DUCHIFAT 1 01 May 12:01:42 12:05:37 36° 262° (W) 12:09:35 145.980
POLYITAN 1 01 May 12:02:01 12:05:52 32° 263° (W) 12:09:45 437.675
AIST 1 01 May 12:04:48 12:09:11 69° 265° (W) 12:13:33
POPSAT HIP 1 01 May 12:05:08 12:08:55 30° 263° (W) 12:12:45 437.405
QB50P1 01 May 12:08:41 12:12:21 27° 264° (W) 12:16:02 145.935-145.965
VELOX 1 01 May 12:23:02 12:27:33 90° 157° (SSE) 12:32:00 145.980
DX 1 01 May 12:25:33 12:29:58 85° 103° (ESE) 12:34:21 434.975-435.025
JAS-2 01 May 12:26:57 12:32:24 44° 69° (ENE) 12:38:34 435.910
UKube-1 01 May 12:35:01 12:39:23 89° 101° (ESE) 12:43:43 .
AO-85 01 May 12:37:58 12:43:17 58° 115° (ESE) 12:48:38 145.980
PHONESAT 2.4 01 May 12:44:29 12:47:26 35° 357° (N) 12:50:23 2401.200-2431.200
NANOSAT C BR1 01 May 12:47:13 12:48:23 11° 268° (W) 12:49:33 145.865
50 SAT 01 May 12:50:29 12:53:36 27° 288° (WNW) 12:56:43 437.505
BUGSAT 1 01 May 12:51:07 12:54:19 21° 265° (W) 12:57:32 437.445
Gurwin Techsat 1B 01 May 12:53:22 12:56:55 19° 65° (ENE) 13:00:29 435.225
AISAT 01 May 12:55:14 12:59:21 37° 289° (WNW) 13:03:26 437.250
Cosmos 2499 01 May 13:01:23 13:09:08 77° 266° (W) 13:17:30 435.465 / 435.565
SPROUT 01 May 13:07:55 13:12:13 75° 285° (WNW) 13:16:29 437.525
ESTCUBE 1 01 May 13:08:02 13:11:25 21° 292° (WNW) 13:14:49 437.505/2401.250
Oscar 19 01 May 13:09:33 13:14:39 66° 74° (ENE) 13:19:49 437.125/150
AO-7 01 May 13:21:35 13:24:05 12° 48° (NE) 13:26:35 29.400- 29.500
CUBEBUG 1 01 May 13:37:59 13:40:19 14° 294° (WNW) 13:42:38 437.445
BEESAT 01 May 13:41:34 13:43:00 11° 91° (E) 13:44:27 436.000
TISAT 1 01 May 13:47:44 13:52:00 88° 108° (ESE) 13:56:11 437.305
GONETS M04 01 May 13:51:24 13:57:27 21° 279° (W) 14:03:29
ISS 01 May 14:02:44 14:05:37 28° 34° (NE) 14:08:30 145.825
O/OREOS (USA 219) 01 May 14:07:56 14:11:23 21° 101° (E) 14:14:51 437.305
JAS-2 01 May 14:13:05 14:17:44 25° 268° (W) 14:22:49 435.910
AO-85 01 May 14:20:00 14:24:09 22° 312° (NW) 14:28:17 145.980
PHONESAT 2.4 01 May 14:21:31 14:24:37 52° 14° (NNE) 14:27:43 2401.200-2431.200
ITAMSAT 1 01 May 14:24:49 14:29:53 57° 73° (ENE) 14:34:58 435.822/435.867
Gurwin Techsat 1B 01 May 14:31:18 14:36:26 51° 260° (W) 14:41:37 435.225
ITUPSAT 1 01 May 14:32:54 14:37:27 42° 99° (E) 14:41:57 437.325
SWISSCUBE 01 May 14:43:01 14:47:45 63° 101° (ESE) 14:52:28 437.505
CUSAT 1 01 May 14:46:31 14:49:06 23° 87° (E) 14:52:12 437.405
Oscar 19 01 May 14:52:19 14:54:23 12° 269° (W) 14:56:29 437.125/150
PCSat 01 May 14:56:09 15:00:33 26° 107° (ESE) 15:04:58 145.827
Cosmos 2499 01 May 14:59:08 15:01:03 11° 281° (WNW) 15:03:01 435.465 / 435.565
AO-7 01 May 15:07:04 15:15:10 61° 68° (ENE) 15:23:16 29.400- 29.500
BEESAT 01 May 15:16:27 15:21:09 63° 286° (WNW) 15:25:51 436.000
DANDE 01 May 15:17:12 15:18:44 14° 87° (E) 15:20:24 436.750
ISS 01 May 15:39:16 15:41:59 24° 229° (SW) 15:44:42 145.825
O/OREOS (USA 219) 01 May 15:46:27 15:50:33 32° 296° (WNW) 15:54:41 437.305
SO-50 01 May 15:51:56 15:56:05 30° 52° (NE) 16:00:06 436.795
PHONESAT 2.4 01 May 15:58:31 16:01:26 35° 209° (SSW) 16:04:22 2401.200-2431.200
MOZHAYETS 4 01 May 16:00:24 16:04:21 29° 96° (E) 16:08:18
ITAMSAT 1 01 May 16:06:54 16:09:40 14° 268° (W) 16:12:27 435.822/435.867
KKS-1 01 May 16:07:22 16:11:46 55° 101° (E) 16:16:06 437.445
ITUPSAT 1 01 May 16:11:44 16:14:55 18° 294° (WNW) 16:18:07 437.325
SWISSCUBE 01 May 16:22:59 16:24:58 13° 296° (WNW) 16:26:58 437.505
STARS 01 May 16:27:56 16:32:12 46° 100° (E) 16:36:24 437.465
CUSAT 1 01 May 16:29:32 16:31:22 14° 295° (WNW) 16:33:26 437.405
HORYU 2 01 May 16:29:49 16:34:16 72° 75° (ENE) 16:38:44 437.375
NOAA 15 01 May 16:32:42 16:35:19 14° 62° (ENE) 16:37:56 137.62
PCSat 01 May 16:38:42 16:43:42 38° 303° (WNW) 16:48:46 145.827
DANDE 01 May 17:00:18 17:01:30 12° 292° (WNW) 17:02:46 436.750
AO-7 01 May 17:01:42 17:08:18 26° 264° (W) 17:14:58 29.400- 29.500
Cosmos 2491 01 May 17:01:56 17:09:18 29° 71° (ENE) 17:16:34 435.465 / 435.565
LilacSat-2 01 May 17:14:38 17:16:40 14° 68° (ENE) 17:18:40 437.200
YUBILEINY 01 May 17:15:42 17:19:12 13° 77° (ENE) 17:22:41 435.215
AUBIESAT-1 01 May 17:22:10 17:22:49 10° 58° (ENE) 17:23:27 437.475
CUTE-I 01 May 17:23:20 17:27:48 28° 68° (ENE) 17:32:16 437.470
NOAA 18 01 May 17:23:58 17:29:05 40° 70° (ENE) 17:34:12 137.9125
GOMX 1 01 May 17:31:41 17:34:19 14° 63° (ENE) 17:37:01 467.674
SO-50 01 May 17:32:32 17:36:26 27° 249° (WSW) 17:40:13 436.795
MOZHAYETS 4 01 May 17:37:45 17:41:22 23° 291° (WNW) 17:44:58
CUBESAT XI-V 01 May 17:41:25 17:45:48 38° 98° (E) 17:50:10 437.345
KKS-1 01 May 17:45:53 17:47:49 13° 295° (WNW) 17:49:43 437.445
BRITE-PL 01 May 17:48:53 17:53:17 41° 72° (ENE) 17:58:05 437.365/2234.400
STARS 01 May 18:05:47 18:08:08 14° 295° (WNW) 18:10:27 437.465
Cubesat XI-IV 01 May 18:06:17 18:11:35 73° 74° (ENE) 18:16:54 437.490
NOAA 15 01 May 18:09:14 18:14:27 68° 257° (WSW) 18:19:43 137.62
M-CUBED/EXP-1 PRIME 01 May 18:32:03 18:36:44 72° 72° (ENE) 18:41:26 437.505
BEESAT 3 01 May 18:40:45 18:44:41 88° 289° (WNW) 18:48:40 437.485
BEESAT 2 01 May 18:45:35 18:49:29 57° 117° (ESE) 18:53:25 435.950
LilacSat-2 01 May 18:47:02 18:50:37 36° 262° (W) 18:54:14 437.200
CANX-2 01 May 18:48:29 18:49:40 11° 65° (ENE) 18:50:51 2200.000
AUBIESAT-1 01 May 18:51:57 18:56:36 84° 251° (WSW) 19:01:16 437.475
HO-68 01 May 18:54:59 19:00:53 29° 63° (ENE) 19:06:46 435.675
Cosmos 2491 01 May 18:58:00 19:06:31 56° 270° (W) 19:14:58 435.465 / 435.565
CUTE-I 01 May 19:02:58 19:07:42 32° 263° (W) 19:12:26 437.470
NOAA 18 01 May 19:05:29 19:09:50 23° 265° (W) 19:14:10 137.9125
YUBILEINY 01 May 19:05:47 19:14:32 82° 94° (E) 19:23:16 435.215
GOMX 1 01 May 19:06:51 19:11:42 63° 260° (W) 19:16:54 467.674
JUGNU 01 May 19:07:48 19:11:01 15° 174° (S) 19:14:14 437.505
DOVE 4 01 May 19:09:08 19:14:07 68° 75° (ENE) 19:19:20 437.250
CUTE 1.7 + AOD 2 01 May 19:19:12 19:22:28 22° 70° (ENE) 19:25:45 437.475
CUBESAT XI-V 01 May 19:19:35 19:22:52 19° 293° (WNW) 19:26:09 437.345
BRITE-PL 01 May 19:28:49 19:32:01 18° 269° (W) 19:35:23 437.365/2234.400
Cosmos 2504 01 May 19:34:40 19:40:38 28° 86° (E) 19:46:29 435.465 / 435.565
SEEDS 01 May 19:48:09 19:51:56 34° 72° (ENE) 19:55:43 437.485
Cubesat XI-IV 01 May 19:50:20 19:52:07 12° 269° (W) 19:53:55 437.490
COMPASS 1 01 May 19:54:04 19:57:36 28° 71° (ENE) 20:01:10 437.405
CINEMA 3 01 May 20:01:41 20:06:40 77° 76° (ENE) 20:11:42 145.822/145.860
STRAND 1 01 May 20:05:42 20:10:50 82° 284° (WNW) 20:15:56 437.568
SRMSAT 01 May 20:06:17 20:08:10 11° 168° (SSE) 20:10:05 437.500
AIST 2 01 May 20:07:34 20:11:06 28° 112° (ESE) 20:14:39 435.215
M-CUBED/EXP-1 PRIME 01 May 20:10:36 20:11:38 11° 265° (W) 20:12:40 437.505
CANX-2 01 May 20:20:52 20:25:01 55° 260° (W) 20:29:10 2200.000
AAUSAT CUBESAT 2 01 May 20:25:34 20:29:34 55° 75° (ENE) 20:33:36 437.432
BEESAT 2 01 May 20:25:51 20:27:41 13° 313° (NW) 20:29:31 435.950
Oscar 11 01 May 20:35:20 20:39:01 28° 71° (ENE) 20:42:42 145.826/435.025
HO-68 01 May 20:41:19 20:48:13 50° 259° (W) 20:55:09 435.675
FUNcube-1 01 May 20:44:54 20:48:52 30° 72° (ENE) 20:52:47 145.935
DOVE 4 01 May 20:50:21 20:52:17 12° 271° (W) 20:54:15 437.250
UWE-3 01 May 20:52:25 20:57:01 61° 75° (ENE) 21:01:33 435.000/436.395/437.385
CUTE 1.7 + AOD 2 01 May 20:54:40 20:58:10 25° 264° (W) 21:01:42 437.475
JUGNU 01 May 20:55:56 20:59:15 15° 185° (S) 21:02:35 437.505
CUBEBUG 2 01 May 20:57:12 21:01:58 83° 259° (WSW) 21:06:41 437.445
HUMSAT D 01 May 21:06:22 21:08:17 13° 66° (ENE) 21:10:11 437.325/437.525
YUBILEINY 01 May 21:06:39 21:12:18 19° 293° (WNW) 21:18:00 435.215
AO-85 01 May 21:13:37 21:17:27 23° 49° (NE) 21:21:01 145.980
PRISM 01 May 21:14:23 21:18:31 65° 286° (WNW) 21:22:39 437.425
RS-15 01 May 21:23:17 21:34:10 62° 112° (ESE) 21:45:39 29.354- 29.394
SEEDS 01 May 21:25:09 21:27:43 16° 267° (W) 21:30:17 437.485
ZACube-1 01 May 21:25:49 21:30:24 85° 258° (WSW) 21:34:55 437.345
Cosmos 2504 01 May 21:26:44 21:33:39 44° 282° (WNW) 21:40:26 435.465 / 435.565
COMPASS 1 01 May 21:30:12 21:33:10 19° 266° (W) 21:36:07 437.405
CINEMA 3 01 May 21:44:10 21:44:16 10° 271° (W) 21:44:21 145.822/145.860
AIST 2 01 May 21:46:12 21:49:33 23° 308° (NW) 21:52:54 435.215
DELFI C3 01 May 21:48:38 21:52:35 81° 259° (WSW) 21:56:32 145.870
SRMSAT 01 May 21:53:02 21:56:33 16° 178° (S) 22:00:04 437.500
ANTELSAT 01 May 22:04:00 22:06:31 15° 93° (E) 22:09:00 437.575/2403.000
Oscar 11 01 May 22:11:49 22:15:06 21° 265° (W) 22:18:25 145.826/435.025
AISAT 01 May 22:16:09 22:17:49 12° 64° (ENE) 22:19:30 437.250
FUNcube-1 01 May 22:21:36 22:25:05 21° 265° (W) 22:28:32 145.935
ESTCUBE 1 01 May 22:28:15 22:31:40 22° 68° (ENE) 22:35:05 437.505/2401.250
UWE-3 01 May 22:32:20 22:33:45 11° 269° (W) 22:35:12 435.000/436.395/437.385
